Location: Doschendorf
(50.0069°N, 11.0602°E)
Time: 21:26:30
(UTC+00:00)

CZ-4B R/B - Pass Details

Date: 17 November 2019
Orbit: 394 x 468 km, 97.6° (Epoch: 07 December)

Event Time Altitude Azimuth Distance (km) Brightness Sun altitude
Rises 16:20:40 0° 3° (N) 2,431 4.9 -8.3°
Reaches altitude 10° 16:22:53 10° 349° (N) 1,570 4.1 -8.6°
Maximum altitude 16:25:41 25° 293° (WNW) 957 3.7 -9.0°
Drops below altitude 10° 16:28:31 10° 237° (WSW) 1,591 5.6 -9.5°
Sets 16:30:47 0° 224° (SW) 2,471 6.4 -9.8°
